AE5HO Weather Reports


Display with metric or nautical units.
time (UTC)temp
F
wind
direction
speed
MPH
gust
MPH
rain 1hr
in
rain 24hr
in
rain mn
in
humidity
%
barometer
mb
20260508002552 70 281 0.0 2.0 0.00 0.00 0.00 58 1015.0
20260508002049 71 172 0.0 3.0 0.00 0.00 0.00 58 1015.2
20260508001544 71 306 1.0 2.0 0.00 0.00 0.00 57 1014.9
20260508001041 71 90 0.0 4.0 0.00 0.00 0.00 57 1015.2
20260508000537 71 286 0.0 1.0 0.00 0.00 0.00 57 1015.2
20260508000035 72 184 0.0 3.0 0.00 0.00 0.00 56 1015.1
20260507235531 72 279 0.0 3.0 0.00 0.00 0.00 56 1015.4
20260507235029 73 196 2.0 2.0 0.00 0.00 0.00 54 1015.3
20260507234525 72 203 3.0 3.0 0.00 0.00 0.00 54 1015.1
20260507234021 73 66 1.0 4.0 0.00 0.00 0.00 54 1015.2
20260507233518 73 196 2.0 3.0 0.00 0.00 0.00 53 1015.2
20260507233017 73 270 0.0 3.0 0.00 0.00 0.00 54 1015.1
20260507232513 73 81 0.0 2.0 0.00 0.00 0.00 55 1015.1
20260507232010 73 172 0.0 3.0 0.00 0.00 0.00 54 1015.1
20260507231506 74 111 1.0 3.0 0.00 0.00 0.00 54 1015.1
20260507231004 74 243 2.0 3.0 0.00 0.00 0.00 53 1015.2
20260507230501 74 200 0.0 1.0 0.00 0.00 0.00 51 1015.1
20260507225955 75 270 0.0 1.0 0.00 0.00 0.00 52 1015.3
20260507225452 75 66 0.0 0.0 0.00 0.00 0.00 49 1015.2
20260507224948 74 164 0.0 2.0 0.00 0.00 0.00 49 1015.3
20260507224444 74 165 0.0 3.0 0.00 0.00 0.00 49 1015.2
20260507223941 74 270 0.0 0.0 0.00 0.00 0.00 55 1015.1
20260507223437 73 270 0.0 0.0 0.00 0.00 0.00 53 1015.3
20260507222934 73 254 0.0 1.0 0.00 0.00 0.00 51 1015.3
20260507222431 74 270 0.0 2.0 0.00 0.00 0.00 49 1015.5
20260507221927 74 270 0.0 0.0 0.00 0.00 0.00 47 1015.2
20260507221424 74 90 0.0 1.0 0.00 0.00 0.00 50 1015.4
20260507220920 74 95 0.0 2.0 0.00 0.00 0.00 50 1015.5
20260507220419 74 257 0.0 1.0 0.00 0.00 0.00 49 1015.6
20260507215915 74 261 0.0 1.0 0.00 0.00 0.00 47 1015.5
20260507215412 75 278 0.0 1.0 0.00 0.00 0.00 49 1015.4
20260507214909 75 261 0.0 2.0 0.00 0.00 0.00 49 1015.6
20260507214407 75 90 0.0 2.0 0.00 0.00 0.00 45 1015.9
20260507213902 76 97 0.0 1.0 0.00 0.00 0.00 45 1015.7
20260507213358 75 262 0.0 2.0 0.00 0.00 0.00 46 1015.8
20260507212856 76 254 0.0 1.0 0.00 0.00 0.00 46 1015.8
20260507212351 75 194 0.0 1.0 0.00 0.00 0.00 47 1015.7
20260507211848 75 74 0.0 3.0 0.00 0.00 0.00 45 1015.7
20260507211345 75 99 0.0 1.0 0.00 0.00 0.00 47 1016.1
20260507210842 75 65 2.0 3.0 0.00 0.00 0.00 45 1016.1
20260507210339 74 83 1.0 2.0 0.00 0.00 0.00 45 1016.2
20260507205835 74 180 1.0 4.0 0.00 0.00 0.00 47 1016.1
20260507205332 75 19 0.0 3.0 0.00 0.00 0.00 46 1016.2
20260507204828 75 90 0.0 5.0 0.00 0.00 0.00 45 1016.2
20260507204326 75 90 1.0 5.0 0.00 0.00 0.00 46 1016.0
20260507203823 75 184 0.0 2.0 0.00 0.00 0.00 45 1016.1
20260507203321 75 5 0.0 3.0 0.00 0.00 0.00 45 1015.9
20260507202817 76 331 0.0 3.0 0.00 0.00 0.00 45 1016.1
20260507202314 77 99 0.0 2.0 0.00 0.00 0.00 46 1016.3
20260507201809 76 199 2.0 2.0 0.00 0.00 0.00 46 1016.4
20260507201305 76 180 2.0 2.0 0.00 0.00 0.00 45 1016.7
20260507200801 75 180 0.0 3.0 0.00 0.00 0.00 46 1016.2
20260507200257 76 188 0.0 3.0 0.00 0.00 0.00 47 1016.7
20260507195753 75 200 0.0 5.0 0.00 0.00 0.00 48 1016.6
20260507195251 74 328 3.0 4.0 0.00 0.00 0.00 47 1016.7
20260507194748 74 176 2.0 4.0 0.00 0.00 0.00 50 1017.1
20260507194244 74 20 0.0 3.0 0.00 0.00 0.00 47 1016.9
20260507193741 74 94 3.0 6.0 0.00 0.00 0.00 48 1016.9
20260507193238 73 180 0.0 4.0 0.00 0.00 0.00 48 1017.0
20260507192734 74 157 3.0 3.0 0.00 0.00 0.00 49 1017.1
20260507192231 73 187 1.0 3.0 0.00 0.00 0.00 48 1017.0
20260507191727 73 191 0.0 3.0 0.00 0.00 0.00 49 1017.4
20260507191224 73 180 2.0 3.0 0.00 0.00 0.00 50 1017.4
20260507190721 72 328 0.0 3.0 0.00 0.00 0.00 50 1017.5
20260507190219 72 213 2.0 3.0 0.00 0.00 0.00 50 1017.4
20260507185718 73 354 0.0 3.0 0.00 0.00 0.00 49 1017.3
20260507185214 73 175 0.0 2.0 0.00 0.00 0.00 49 1017.4
20260507184712 73 97 1.0 3.0 0.00 0.00 0.00 51 1017.5
20260507184209 73 102 0.0 5.0 0.00 0.00 0.00 51 1017.6
20260507183705 72 180 0.0 4.0 0.00 0.00 0.00 50 1017.8
20260507183203 72 81 0.0 4.0 0.00 0.00 0.00 50 1017.8
20260507182700 72 189 0.0 3.0 0.00 0.00 0.00 50 1017.7
20260507182155 72 199 0.0 2.0 0.00 0.00 0.00 51 1017.8
20260507181652 72 98 1.0 3.0 0.00 0.00 0.00 50 1017.9
20260507181148 71 194 0.0 3.0 0.00 0.00 0.00 51 1018.0
20260507180644 71 194 3.0 3.0 0.00 0.00 0.00 51 1018.0
20260507180142 71 76 5.0 5.0 0.00 0.00 0.00 52 1018.2
20260507175637 70 343 2.0 5.0 0.00 0.00 0.00 51 1018.2
20260507175135 71 346 1.0 3.0 0.00 0.00 0.00 51 1018.6
20260507174632 70 74 2.0 5.0 0.00 0.00 0.00 52 1018.5
20260507174130 70 82 1.0 5.0 0.00 0.00 0.00 54 1018.2
20260507173627 71 64 0.0 3.0 0.00 0.00 0.00 52 1018.5
20260507173124 70 14 0.0 5.0 0.00 0.00 0.00 52 1018.8
20260507172620 70 18 0.0 3.0 0.00 0.00 0.00 52 1018.8
20260507172118 69 180 1.0 3.0 0.00 0.00 0.00 53 1018.9
20260507171612 69 0 3.0 5.0 0.00 0.00 0.00 54 1019.1
20260507171110 71 190 2.0 5.0 0.00 0.00 0.00 53 1019.5
20260507170607 71 63 1.0 4.0 0.00 0.00 0.00 54 1019.4
20260507170104 70 246 0.0 1.0 0.00 0.00 0.00 57 1019.9
20260507165559 69 188 0.0 3.0 0.00 0.00 0.00 59 1019.6
20260507165056 69 214 0.0 7.0 0.00 0.00 0.00 57 1020.1
20260507164552 69 195 1.0 3.0 0.00 0.00 0.00 56 1020.0
20260507164049 69 174 0.0 3.0 0.00 0.00 0.00 58 1019.8
20260507163547 68 198 3.0 3.0 0.00 0.00 0.00 58 1019.9
20260507163045 67 90 1.0 3.0 0.00 0.00 0.00 60 1020.0
20260507162544 68 49 2.0 3.0 0.00 0.00 0.00 60 1019.7
20260507162042 67 262 0.0 3.0 0.00 0.00 0.00 62 1020.0
20260507161539 68 189 0.0 4.0 0.00 0.00 0.00 57 1019.9
20260507161035 69 26 0.0 3.0 0.00 0.00 0.00 58 1019.9
20260507160531 68 90 0.0 3.0 0.00 0.00 0.00 60 1019.8
20260507160027 68 192 0.0 3.0 0.00 0.00 0.00 60 1020.0
20260507155522 67 283 0.0 3.0 0.00 0.00 0.00 59 1019.8
20260507155020 67 85 2.0 4.0 0.00 0.00 0.00 61 1020.0
20260507154517 67 82 4.0 4.0 0.00 0.00 0.00 58 1020.2
20260507154014 68 162 1.0 3.0 0.00 0.00 0.00 59 1020.2
20260507153511 67 69 1.0 3.0 0.00 0.00 0.00 61 1020.0
20260507153007 66 266 0.0 3.0 0.00 0.00 0.00 63 1020.1
20260507152502 65 0 2.0 5.0 0.00 0.00 0.00 65 1020.1
20260507151959 65 148 2.0 4.0 0.00 0.00 0.00 67 1020.1
20260507151455 64 57 2.0 5.0 0.00 0.00 0.00 66 1020.3
20260507150952 64 83 3.0 7.0 0.00 0.00 0.00 66 1020.2
20260507150449 64 85 0.0 3.0 0.00 0.00 0.00 68 1020.3
20260507145945 64 99 0.0 3.0 0.00 0.00 0.00 69 1020.2
20260507145441 63 117 1.0 4.0 0.00 0.00 0.00 69 1020.3
20260507144938 62 107 0.0 4.0 0.00 0.00 0.00 71 1020.6
20260507144435 62 285 2.0 3.0 0.00 0.00 0.00 71 1020.2
20260507143932 63 180 0.0 3.0 0.00 0.00 0.00 72 1020.4
20260507143430 62 45 2.0 4.0 0.00 0.00 0.00 73 1020.8
20260507142926 61 154 0.0 1.0 0.00 0.00 0.00 77 1020.4
20260507142422 60 81 0.0 4.0 0.00 0.00 0.00 76 1020.5
20260507141920 60 77 0.0 3.0 0.00 0.00 0.00 78 1020.7
20260507141415 60 180 0.0 3.0 0.00 0.00 0.00 78 1020.6
20260507140912 60 90 0.0 2.0 0.00 0.00 0.00 78 1020.7
20260507140408 59 8 3.0 4.0 0.00 0.00 0.00 78 1020.7
20260507135907 59 99 0.0 3.0 0.00 0.00 0.00 81 1020.7
20260507135403 59 114 0.0 1.0 0.00 0.00 0.00 82 1020.8
20260507134901 58 165 0.0 1.0 0.00 0.00 0.00 82 1020.7
20260507134357 58 111 0.0 1.0 0.00 0.00 0.00 83 1021.0
20260507133853 57 121 0.0 3.0 0.00 0.00 0.00 84 1021.0
20260507133348 56 90 2.0 4.0 0.00 0.00 0.00 84 1020.8
20260507132848 56 84 2.0 5.0 0.00 0.00 0.00 84 1020.9
20260507132343 56 145 0.0 2.0 0.00 0.00 0.00 85 1020.9
20260507131841 56 65 4.0 4.0 0.00 0.00 0.00 86 1021.0
20260507131337 55 0 1.0 2.0 0.00 0.00 0.00 86 1020.9
20260507130834 55 172 0.0 2.0 0.00 0.00 0.00 87 1020.9
20260507130331 55 68 0.0 3.0 0.00 0.00 0.00 87 1021.0
20260507125831 54 263 0.0 1.0 0.00 0.00 0.00 88 1020.7
20260507125327 54 278 0.0 1.0 0.00 0.00 0.00 88 1020.9
20260507124824 54 262 0.0 1.0 0.00 0.00 0.00 89 1020.6
20260507124321 54 54 0.0 2.0 0.00 0.00 0.00 89 1020.6
20260507123819 53 243 0.0 3.0 0.00 0.00 0.00 89 1020.7
20260507123316 53 270 0.0 2.0 0.00 0.00 0.00 91 1020.5
20260507122812 53 81 0.0 0.0 0.00 0.00 0.00 92 1020.5
20260507122308 53 103 0.0 0.0 0.00 0.00 0.00 92 1020.6
20260507121804 52 109 1.0 2.0 0.00 0.00 0.00 92 1020.6
20260507121300 52 0 0.0 1.0 0.00 0.00 0.00 92 1020.5
20260507120756 52 66 0.0 0.0 0.00 0.00 0.00 92 1020.5
20260507120253 52 66 0.0 0.0 0.00 0.00 0.00 92 1020.1
20260507115749 52 66 0.0 0.0 0.00 0.00 0.00 92 1020.1
20260507115245 52 66 0.0 1.0 0.00 0.00 0.00 92 1019.8
20260507114741 52 29 0.0 0.0 0.00 0.00 0.00 92 1020.3
20260507114238 52 29 0.0 3.0 0.00 0.00 0.00 92 1020.0
20260507113736 52 165 0.0 1.0 0.00 0.00 0.00 92 1019.8
20260507113232 52 90 0.0 2.0 0.00 0.00 0.00 92 1020.0
20260507112731 52 109 0.0 2.0 0.00 0.00 0.00 92 1019.6
20260507112227 52 82 0.0 1.0 0.00 0.00 0.00 92 1019.9
20260507111725 52 278 0.0 2.0 0.00 0.00 0.00 93 1020.1
20260507111221 52 90 1.0 2.0 0.00 0.00 0.00 93 1020.1
20260507110717 52 66 0.0 1.0 0.00 0.00 0.00 93 1019.9
20260507110214 53 99 0.0 0.0 0.00 0.00 0.00 93 1019.8
20260507105711 53 180 0.0 1.0 0.00 0.00 0.00 93 1019.7
20260507105206 53 285 0.0 0.0 0.00 0.00 0.00 93 1019.7
20260507104704 52 98 0.0 2.0 0.00 0.00 0.00 94 1019.5
20260507104201 52 166 0.0 0.0 0.00 0.00 0.00 94 1019.6
20260507103656 52 240 0.0 1.0 0.00 0.00 0.00 93 1019.5
20260507103153 52 74 0.0 0.0 0.00 0.00 0.00 93 1019.3
20260507102650 52 74 0.0 0.0 0.00 0.00 0.00 93 1019.3
20260507102146 52 74 0.0 0.0 0.00 0.00 0.00 93 1018.9
20260507101642 52 74 0.0 0.0 0.00 0.00 0.00 93 1018.8
20260507101138 52 74 0.0 0.0 0.00 0.00 0.00 93 1018.7
20260507100635 52 99 0.0 0.0 0.00 0.00 0.00 93 1018.7
20260507100134 53 99 0.0 0.0 0.00 0.00 0.00 92 1018.9
20260507095631 53 99 0.0 0.0 0.00 0.00 0.00 92 1018.7
20260507095127 53 99 0.0 0.0 0.00 0.00 0.00 92 1018.6
20260507094624 53 99 0.0 0.0 0.00 0.00 0.00 91 1018.6
20260507094121 53 99 0.0 0.0 0.00 0.00 0.00 91 1018.3
20260507093618 53 90 0.0 0.0 0.00 0.00 0.00 91 1018.3
20260507093117 53 81 0.0 0.0 0.00 0.00 0.00 90 1018.5
20260507092613 54 81 0.0 0.0 0.00 0.00 0.00 90 1018.5
20260507092109 54 90 0.0 0.0 0.00 0.00 0.00 90 1018.4
20260507091606 54 165 0.0 0.0 0.00 0.00 0.00 90 1018.3
20260507091102 54 12 0.0 1.0 0.00 0.00 0.00 89 1017.7
20260507090558 54 90 0.0 0.0 0.00 0.00 0.00 89 1018.0
20260507090055 54 98 1.0 1.0 0.00 0.00 0.00 88 1017.9
20260507085552 55 90 0.0 1.0 0.00 0.00 0.00 88 1018.3
20260507085049 55 90 0.0 0.0 0.00 0.00 0.00 88 1018.3
20260507084546 55 90 0.0 1.0 0.00 0.00 0.00 87 1018.0
20260507084043 55 165 0.0 0.0 0.00 0.00 0.00 87 1018.2
20260507083539 55 90 0.0 0.0 0.00 0.00 0.00 87 1018.3
20260507083036 55 99 0.0 2.0 0.00 0.00 0.00 87 1018.3
20260507082532 56 75 1.0 1.0 0.00 0.00 0.00 86 1018.3
20260507082028 56 66 1.0 2.0 0.00 0.00 0.00 86 1018.4
20260507081525 56 180 0.0 2.0 0.00 0.00 0.00 86 1018.2
20260507081022 56 68 2.0 2.0 0.00 0.00 0.00 86 1018.3
20260507080518 56 90 0.0 1.0 0.00 0.00 0.00 86 1018.1
20260507080014 56 90 0.0 1.0 0.00 0.00 0.00 86 1018.0
20260507075510 56 123 0.0 2.0 0.00 0.00 0.00 86 1017.9
20260507075007 56 160 0.0 3.0 0.00 0.00 0.00 86 1018.0
20260507074503 56 85 0.0 2.0 0.00 0.00 0.00 85 1017.8
20260507074002 57 82 1.0 2.0 0.00 0.00 0.00 85 1017.8
20260507073457 57 116 0.0 4.0 0.00 0.00 0.00 85 1017.7
20260507072954 57 101 0.0 3.0 0.00 0.00 0.00 85 1017.8
20260507072452 57 180 0.0 4.0 0.00 0.00 0.00 84 1017.8
20260507071949 57 131 0.0 2.0 0.00 0.00 0.00 84 1017.6
20260507071446 57 90 0.0 2.0 0.00 0.00 0.00 84 1017.5
20260507070942 57 99 0.0 3.0 0.00 0.00 0.00 83 1017.6
20260507070440 57 77 0.0 3.0 0.00 0.00 0.00 83 1017.8
20260507065936 57 105 1.0 2.0 0.00 0.00 0.00 83 1017.5
20260507065433 57 83 0.0 2.0 0.00 0.00 0.00 83 1018.0
20260507064930 57 53 0.0 4.0 0.00 0.00 0.00 83 1017.7
20260507064429 57 90 0.0 1.0 0.00 0.00 0.00 82 1017.6
20260507063926 57 106 0.0 1.0 0.00 0.00 0.00 82 1017.6
20260507063423 57 90 2.0 3.0 0.00 0.00 0.00 82 1017.7
20260507062920 57 81 0.0 3.0 0.00 0.00 0.00 82 1017.6
20260507062417 57 90 0.0 2.0 0.00 0.00 0.00 82 1017.6
20260507061914 57 180 0.0 2.0 0.00 0.00 0.00 82 1017.6
20260507061413 57 90 0.0 2.0 0.00 0.00 0.00 81 1017.4
20260507060911 57 154 1.0 2.0 0.00 0.00 0.00 82 1017.2
20260507060407 57 84 0.0 3.0 0.00 0.00 0.00 82 1017.6
20260507055904 57 90 0.0 1.0 0.00 0.00 0.00 81 1017.4
20260507055359 57 84 0.0 2.0 0.00 0.00 0.00 81 1017.6
20260507054856 57 74 0.0 1.0 0.00 0.00 0.00 81 1017.5
20260507054352 57 90 0.0 1.0 0.00 0.00 0.00 80 1017.4
20260507053849 57 90 0.0 2.0 0.00 0.00 0.00 80 1017.2
20260507053347 57 90 0.0 0.0 0.00 0.00 0.00 80 1017.5
20260507052846 58 90 0.0 1.0 0.00 0.00 0.00 79 1017.2
20260507052342 58 90 0.0 2.0 0.00 0.00 0.00 79 1017.2
20260507051840 58 66 0.0 2.0 0.00 0.00 0.00 79 1017.1
20260507051337 58 157 0.0 3.0 0.00 0.00 0.00 79 1017.5
20260507050834 58 78 2.0 2.0 0.00 0.00 0.00 78 1017.2
20260507050330 58 90 0.0 2.0 0.00 0.00 0.00 78 1017.3
20260507045827 58 72 0.0 4.0 0.00 0.06 0.06 77 1017.4
20260507045324 58 111 0.0 2.0 0.00 0.06 0.06 77 1017.5
20260507044821 59 75 0.0 2.0 0.00 0.06 0.06 76 1017.5
20260507044318 59 184 2.0 3.0 0.00 0.06 0.06 76 1017.6
20260507043813 59 99 0.0 2.0 0.00 0.06 0.06 76 1017.5
20260507043310 59 203 0.0 3.0 0.00 0.06 0.06 75 1017.6
20260507042807 59 168 1.0 2.0 0.00 0.06 0.06 75 1017.8
20260507042306 59 180 0.0 4.0 0.00 0.06 0.06 75 1017.3
20260507041759 60 85 0.0 2.0 0.00 0.06 0.06 75 1017.6
20260507041256 60 71 0.0 2.0 0.00 0.06 0.06 75 1017.8
20260507040753 60 65 0.0 3.0 0.00 0.06 0.06 75 1017.6
20260507040249 60 173 0.0 3.0 0.00 0.06 0.06 75 1017.8
20260507035745 60 63 2.0 4.0 0.00 0.06 0.06 75 1017.4
20260507035240 60 101 0.0 4.0 0.00 0.06 0.06 75 1017.8
20260507034738 60 165 0.0 3.0 0.00 0.06 0.06 75 1017.5
20260507034235 60 188 0.0 4.0 0.00 0.06 0.06 75 1017.8
20260507033734 60 196 0.0 3.0 0.00 0.06 0.06 75 1017.9
20260507033231 60 166 0.0 4.0 0.00 0.06 0.06 75 1017.7
20260507032728 60 157 0.0 3.0 0.00 0.06 0.06 74 1017.8
20260507032224 60 195 0.0 4.0 0.00 0.06 0.06 74 1017.4
20260507031721 60 323 0.0 5.0 0.00 0.06 0.06 74 1017.6
20260507031217 60 176 2.0 5.0 0.00 0.06 0.06 74 1017.8
20260507030714 60 195 0.0 10.0 0.00 0.06 0.06 74 1017.6
20260507030212 60 198 1.0 5.0 0.00 0.06 0.06 74 1017.6
20260507025709 60 63 3.0 8.0 0.00 0.06 0.06 74 1017.5
20260507025206 60 90 1.0 8.0 0.00 0.06 0.06 74 1017.3
20260507024704 61 53 2.0 7.0 0.00 0.06 0.06 74 1016.9
20260507024201 61 74 2.0 7.0 0.00 0.06 0.06 74 1016.9
20260507023656 61 90 3.0 4.0 0.00 0.06 0.06 74 1017.1
20260507023154 61 49 3.0 11.0 0.00 0.06 0.06 74 1016.8
20260507022651 62 154 1.0 5.0 0.00 0.06 0.06 74 1016.7
20260507022146 62 148 0.0 6.0 0.00 0.06 0.06 74 1016.6
20260507021643 62 180 0.0 3.0 0.00 0.06 0.06 74 1016.2
20260507021138 62 180 1.0 4.0 0.00 0.06 0.06 74 1016.6
20260507020637 62 115 2.0 4.0 0.00 0.06 0.06 74 1016.4
20260507020132 62 90 1.0 4.0 0.00 0.06 0.06 74 1016.3
20260507015631 62 10 5.0 8.0 0.00 0.06 0.06 74 1016.3
20260507015128 62 73 4.0 8.0 0.00 0.06 0.06 74 1016.0
20260507014625 62 358 4.0 4.0 0.00 0.06 0.06 74 1016.0
20260507014121 62 166 2.0 3.0 0.00 0.06 0.06 75 1016.0
20260507013617 62 61 2.0 4.0 0.00 0.06 0.06 74 1015.5
20260507013114 62 166 0.0 2.0 0.00 0.06 0.06 74 1015.5
20260507012612 62 160 3.0 6.0 0.00 0.06 0.06 74 1015.3
20260507012107 62 248 3.0 7.0 0.00 0.06 0.06 74 1015.1
20260507011606 62 71 5.0 7.0 0.00 0.06 0.06 74 1015.1
20260507011101 62 29 1.0 5.0 0.00 0.06 0.06 74 1015.2
20260507010556 62 62 3.0 4.0 0.00 0.06 0.06 74 1015.1
20260507010052 62 121 2.0 5.0 0.00 0.06 0.06 74 1015.1
20260507005550 63 22 4.0 4.0 0.00 0.06 0.06 74 1015.0
20260507005046 63 166 2.0 6.0 0.00 0.06 0.06 74 1015.1
20260507004543 63 55 2.0 9.0 0.00 0.06 0.06 74 1014.8
20260507004041 63 99 3.0 5.0 0.00 0.06 0.06 73 1015.0
20260507003536 63 160 1.0 7.0 0.00 0.06 0.06 74 1015.1
20260507003032 63 165 0.0 6.0 0.00 0.06 0.06 74 1014.8